This demonstration page uses our WeatherBlox Daily Observations layout. Learn more.

Left ArrowRight Arrow

34.74481, -87.66753

Hourly Observations for January 28, 2022

Temp ( °F °C ) Dew Point ( °F °C ) Humidity (%) Winds ( mph kmh ) Pressure ( in mb ) Visibility ( mi km ) Precip ( " mm )
12:53 am 00:53 Cloudy 42 5.6 17 -8.3 36 36 N 5 7 30.19 1022 10 16 0.00 0.00
1:53 am 01:53 Cloudy 41 5 18 -7.8 39 39 NNW 6 9 30.18 1022 10 16 0.00 0.00
2:53 am 02:53 Cloudy 40 4.4 19 -7.2 43 43 NNW 6 9 30.17 1022 10 16 0.00 0.00
3:53 am 03:53 Cloudy 39 3.9 21 -6.1 48 48 NNW 8 13 30.18 1022 10 16 0.00 0.00
4:53 am 04:53 Cloudy 38 3.3 23 -5 55 55 NNW 8 13 30.17 1022 10 16 0.00 0.00
5:53 am 05:53 Cloudy 38 3.3 25 -3.9 60 60 NNW 6 9 30.19 1022 10 16 0.00 0.00
6:53 am 06:53 Cloudy 37 2.8 25 -3.9 62 62 NNW 8 13 30.21 1023 10 16 0.00 0.00
7:53 am 07:53 Partly Cloudy 37 2.8 24 -4.4 59 59 NNW 10 17 30.22 1023 10 16 0.00 0.00
8:53 am 08:53 Sunny 38 3.3 25 -3.9 60 60 N 9 15 30.23 1024 10 16 0.00 0.00
9:53 am 09:53 Mostly Sunny 39 3.9 25 -3.9 57 57 NNW 14 22 30.23 1024 10 16 0.00 0.00
10:53 am 10:53 Sunny 42 5.6 23 -5 47 47 NNW 14 22 30.22 1023 10 16 0.00 0.00
11:53 am 11:53 Sunny 45 7.2 21 -6.1 39 39 NNW 9 15 30.19 1022 10 16 0.00 0.00
12:53 pm 12:53 Mostly Sunny 47 8.3 20 -6.7 34 34 NW 15 24 30.16 1021 10 16 0.00 0.00
1:53 pm 13:53 Mostly Cloudy 46 7.8 20 -6.7 35 35 WNW 14 22 30.14 1021 10 16 0.00 0.00
2:53 pm 14:53 Cloudy 43 6.1 20 -6.7 40 40 NW 17 28 30.14 1021 10 16 0.00 0.00
3:53 pm 15:53 Partly Cloudy 41 5 23 -5 49 49 NW 13 20 30.15 1021 10 16 0.00 0.00
4:53 pm 16:53 Mostly Cloudy 41 5 21 -6.1 45 45 NW 13 20 30.16 1021 10 16 0.00 0.00
5:53 pm 17:53 Partly Cloudy 38 3.3 18 -7.8 44 44 NW 16 26 30.20 1023 10 16 0.00 0.00
6:53 pm 18:53 Clear 35 1.7 18 -7.8 50 50 NNW 10 17 30.23 1024 10 16 0.00 0.00
7:53 pm 19:53 Clear 33 0.6 18 -7.8 54 54 NNW 9 15 30.25 1024 10 16 0.00 0.00
8:53 pm 20:53 Clear 31 -0.6 15 -9.4 52 52 N 16 26 30.28 1025 10 16 0.00 0.00
9:53 pm 21:53 Clear 29 -1.7 14 -10 54 54 NW 9 15 30.30 1026 10 16 0.00 0.00
10:53 pm 22:53 Clear 28 -2.2 14 -10 56 56 NNW 10 17 30.31 1026 10 16 0.00 0.00
11:53 pm 23:53 Mostly Clear 27 -2.8 14 -10 58 58 NW 14 22 30.32 1027 10 16 0.00 0.00

Powered by AerisWeather